Location: Sevilla
(37.3933°N, 5.9839°W)
Time: 05:24:11
(UTC+02:00)

Transit 2A Rocket - Pass Details

Date: 04 July 2024
Orbit: 582 x 910 km, 66.7° (Epoch: 15 July)

Event Time Altitude Azimuth Distance (km) Brightness Sun altitude
Rises 04:46:13 0° 332° (NNW) 3,538 8.8 -21.6°
Reaches altitude 10° 04:48:45 10° 334° (NNW) 2,601 8.1 -21.3°
Maximum altitude 04:54:53 82° 61° (ENE) 916 5.4 -20.6°
Drops below altitude 10° 05:00:48 10° 150° (SSE) 2,516 7.4 -19.9°
Enters shadow 05:03:01 - 151° (SSE) 3,341 8.1 -19.6°
Sets 05:03:13 0° 151° (SSE) 3,415 - -19.6°
